Regional Weather Roundup
Issued by NWS

Home | Current Version | Previous Version | Graphics & Text | Print | Product List | Glossary On
Versions: 1 2 3 4 5 6 7 8 9 10 11 12 13 14 15 16 17 18 19 20 21 22 23 24 25 26 27 28 29 30 31 32 33 34 35 36 37 38 39 40 41 42 43 44 45 46 47 48 49 50
000
ASUS43 KLOT 281506
RWRIL

ILLINOIS REGIONAL WEATHER ROUNDUP
NATIONAL WEATHER SERVICE CHICAGO/ROMEOVILLE IL
1000 AM CDT MON JUL 28 2014

NOTE: "FAIR" INDICATES FEW OR NO CLOUDS BELOW 12,000 FEET WITH NO
SIGNIFICANT WEATHER AND/OR OBSTRUCTIONS TO VISIBILITY.

* THESE STATIONS ARE NOT UNDER NWS QUALITY CONTROL. THEY ALSO MAY NOT
  REPORT WEATHER SUCH AS PRECIPITATION OR FOG.

ILZ001-002-007-009-015-016-024-281600-
NORTHWEST ILLINOIS

CITY           SKY/WX    TMP DP  RH WIND       PRES   REMARKS
MOLINE         SUNNY     67  50  54 VRB7G18   30.14R
STERLING*      MOSUNNY   66  50  55 NE13G21   30.13S
SAVANNA*       SUNNY     67  47  48 N17       30.13S
$$

ILZ003-004-008-010-011-017-018-281600-
NORTH CENTRAL ILLINOIS

CITY           SKY/WX    TMP DP  RH WIND       PRES   REMARKS
ROCKFORD       MOSUNNY   65  47  52 N17G25    30.13R
FREEPORT*      SUNNY     61  49  65 N10G21    30.15R
ROCHELLE*      SUNNY     64  48  56 N15       30.11R
DE KALB*       SUNNY     61  48  63 N14G22    30.10S
PERU*          SUNNY     64  51  62 N14G20    30.10S
$$

ILZ005-006-012>014-019>023-281600-
NORTHEAST ILLINOIS

CITY           SKY/WX    TMP DP  RH WIND       PRES   REMARKS
CHICAGO-OHARE  MOSUNNY   64  45  49 N18       30.06R
CHICAGO-MIDWAY MOSUNNY   66  50  56 N13       30.05S
AURORA         SUNNY     64  49  57 N16       30.08R
LANSING*       MOSUNNY   63  51  65 N13G21    30.05R
JOLIET*        SUNNY     64  49  58 N12       30.07S
WAUKEGAN       SUNNY     61  45  55 N13G23    30.07R
DUPAGE AIRPORT SUNNY     64  49  57 N15       30.07R
KANKAKEE*      SUNNY     66  55  67 NW9       30.06R
WHEELING       SUNNY     64  47  53 N14G23    30.08R
MORRIS*        SUNNY     65  53  65 N5        30.07R
ROMEOVILLE*    SUNNY     64  50  60 NW10      30.07R
NORTHERLY ISL    N/A     61  50  67 N14         N/A
$$

LMZ740>746-281600-
SOUTHERN LAKE MICHIGAN

STATION/POSITION SKY/WX   TEMP    WIND        PRES    VSBY  WAVE
                          AIR SEA DIR/SP/G                  HT/PER
                          (F)     (DEG/KT/KT) (MB)    (MI)  (FT/S)
SOUTHERN BUOY              56 59  340/ 23/ 27 1017.0R         8/ 7
WAUKEGAN HARBOR            58      20/ 21/ 25   N/A
HARRISON CRIB              58     340/ 25/ 29   N/A
BURNHAM HARBOR             61     350/ 20/ 20   N/A
CALUMET HARBOR             61     330/ 12/ 22 1016.6R
MICHIGAN CITY              59     340/ 25/ 29   N/A
MICHIGAN CITY 6N           60 67  360/ 17/ 25   N/A           9/ 7
ST. JOSEPH                 59 66  340/ 19/ 25   N/A           9/ 7
$$

ILZ025>027-034>036-040-047-049-050-058-095>099-281600-
WEST-CENTRAL ILLINOIS

CITY           SKY/WX    TMP DP  RH WIND       PRES   REMARKS
QUINCY         CLOUDY    66  59  78 NE7       30.15R
GALESBURG*     SUNNY     67  54  62 N15G23    30.14S
MACOMB*        MOSUNNY   66  55  67 N10       30.16S
JACKSONVILLE*  PTSUNNY   70  61  71 N12       30.13R
PITTSFIELD*    PTSUNNY   69  60  70 N8        30.14R
$$

ILZ028>032-037-038-041>044-048-051>054-059>061-281600-
CENTRAL ILLINOIS

CITY           SKY/WX    TMP DP  RH WIND       PRES   REMARKS
PONTIAC        SUNNY     66  55  68 NW14      30.07S
DECATUR        SUNNY     69  56  62 N13       30.08R
PEORIA         SUNNY     68  52  56 N9        30.11R
LACON*         MOSUNNY   64  51  60 N10G17    30.09S
LINCOLN*       SUNNY     70  55  59 N8        30.08R
SPRINGFIELD    PTSUNNY   71  59  65 N9G17     30.10R
TAYLORVILLE    MOSUNNY   66  57  72 N10       30.09S
$$

ILZ033-039-045-046-055>057-062-063-281600-
EAST-CENTRAL ILLINOIS

CITY           SKY/WX    TMP DP  RH WIND       PRES   REMARKS
CHAMPAIGN      SUNNY     66  57  72 N15       30.06R
DANVILLE*      SUNNY     65  56  72 N14       30.01S
RANTOUL*       SUNNY     68  54  61 N10       30.07R
MATTOON        SUNNY     68  57  68 N12       30.06R
PARIS*         SUNNY     68  58  69 N8        30.05R
$$

ILZ079-100>102-281600-
SOUTHWEST ILLINOIS

CITY           SKY/WX    TMP DP  RH WIND       PRES   REMARKS
ALTON          PTSUNNY   70  64  83 N6        30.11R
BELLEVILLE     CLOUDY    73  64  72 N10       30.09R
CAHOKIA*       PTSUNNY   73  62  68 N12       30.10R
SPARTA*        MOSUNNY   72  63  73 N5        30.09S
$$

ILZ064>066-069>071-074>076-080>082-084>086-088>090-092>094-281600-
SOUTH-CENTRAL ILLINOIS

CITY           SKY/WX    TMP DP  RH WIND       PRES   REMARKS
CARBONDALE     MOSUNNY   73  61  65 N7        30.08R
CAIRO*         SUNNY     76  63  65 CALM      30.07S
EFFINGHAM*     MOSUNNY   71  56  59 NW8       30.07R
MARION         MOSUNNY   73  63  68 NW9       30.08R
MT. VERNON     MOSUNNY   72  61  68 NW5       30.08R
CENTRALIA*     PTSUNNY   79  62  56 NW8       30.08R HX  80
SALEM*         MOSUNNY  N/A N/A N/A N14       30.08R
METROPOLIS*    SUNNY     74  59  58 NW8       30.06R
$$

ILZ067-068-072-073-078-083-087-091-281600-
SOUTHEAST ILLINOIS

CITY           SKY/WX    TMP DP  RH WIND       PRES   REMARKS
LAWRENCEVILLE  SUNNY     71  58  63 N13       30.04R
FLORA*         SUNNY     71  60  69 NW9       30.06R
FAIRFIELD*     MOSUNNY   73  64  73 NW6       30.05S
HARRISBURG*    MOSUNNY   72  63  72 N8        30.07R
ROBINSON*      MOSUNNY   72  61  68 N9        30.05R
CARMI*         MOSUNNY   73  63  68 N7        30.05R
$$

ABBREVIATIONS USED IN REMARKS
   TC - TEMPERATURE IN CELSIUS
  WCI - WIND CHILL INDEX
   HX - HEAT INDEX
  VSB - VISIBILITY
$$



USA.gov is the U.S. government's official web portal to all federal, state and local government web resources and services.